AUR644 EGTE-EGJB

Flight info

Callsign AUR644
Flight time 0h 25m
Altitude 9000
Route DAWLY N864 ABBEW/N0283F090 N90 ENHEL N862 SKERY
Aircraft AT76/M-SDFGIRY/S

Departure

Time 2026-04-20 19:35
Airport Exeter International Airport (EGTE)

Arrival

Time 2026-04-20 20:00
Airport Guernsey Airport (EGJB)
Time Latitude Longitude Altitude Speed Heading
2026-04-20 19:24 50.73184 -3.41804 95 ft 0 kts 236°
2026-04-20 19:31 50.73173 -3.41836 97 ft 6 kts 243°
2026-04-20 19:31 50.73146 -3.41904 95 ft 9 kts 237°
2026-04-20 19:31 50.73117 -3.41998 99 ft 11 kts 248°
2026-04-20 19:31 50.73082 -3.42110 97 ft 12 kts 240°
2026-04-20 19:32 50.73061 -3.42214 96 ft 10 kts 278°
2026-04-20 19:32 50.73071 -3.42338 95 ft 12 kts 271°
2026-04-20 19:32 50.73070 -3.42481 95 ft 12 kts 269°
2026-04-20 19:32 50.73075 -3.42576 99 ft 8 kts 279°
2026-04-20 19:33 50.73079 -3.42611 98 ft 0 kts 282°
2026-04-20 19:33 50.73080 -3.42612 98 ft 1 kts 282°
2026-04-20 19:33 50.73089 -3.42664 96 ft 8 kts 287°
2026-04-20 19:34 50.73132 -3.42753 95 ft 12 kts 321°
2026-04-20 19:34 50.73201 -3.42779 96 ft 9 kts 19°
2026-04-20 19:34 50.73218 -3.42735 96 ft 0 kts 75°
2026-04-20 19:34 50.73235 -3.42627 96 ft 38 kts 76°
2026-04-20 19:35 50.73353 -3.41867 96 ft 103 kts 77°
2026-04-20 19:35 50.73572 -3.40603 390 ft 121 kts 75°
2026-04-20 19:35 50.73831 -3.39338 1017 ft 121 kts 73°
2026-04-20 19:35 50.74073 -3.38084 1681 ft 121 kts 75°
2026-04-20 19:36 50.74116 -3.36790 2213 ft 128 kts 116°
2026-04-20 19:36 50.73304 -3.36073 2658 ft 154 kts 175°
2026-04-20 19:36 50.72219 -3.36685 3105 ft 175 kts 200°
2026-04-20 19:36 50.71062 -3.37553 3500 ft 189 kts 201°
2026-04-20 19:37 50.69870 -3.38496 4052 ft 193 kts 202°
2026-04-20 19:37 50.68636 -3.39500 4373 ft 209 kts 202°
2026-04-20 19:37 50.67330 -3.40579 4760 ft 212 kts 203°
2026-04-20 19:37 50.66018 -3.41672 5138 ft 213 kts 203°
2026-04-20 19:38 50.64703 -3.42770 5502 ft 214 kts 204°
2026-04-20 19:38 50.63382 -3.43837 5877 ft 214 kts 199°
2026-04-20 19:38 50.61968 -3.44514 6217 ft 212 kts 192°
2026-04-20 19:38 50.60540 -3.45116 6603 ft 212 kts 192°
2026-04-20 19:39 50.59129 -3.45709 6954 ft 212 kts 193°
2026-04-20 19:39 50.57696 -3.46307 7277 ft 214 kts 193°
2026-04-20 19:39 50.56240 -3.46773 7619 ft 213 kts 185°
2026-04-20 19:39 50.54754 -3.46979 7920 ft 214 kts 182°
2026-04-20 19:40 50.53260 -3.47140 8230 ft 216 kts 182°
2026-04-20 19:40 50.51755 -3.47320 8539 ft 217 kts 184°
2026-04-20 19:40 50.50291 -3.47450 9007 ft 207 kts 172°
2026-04-20 19:40 50.48918 -3.46690 9161 ft 215 kts 153°
2026-04-20 19:41 50.47554 -3.45541 9203 ft 229 kts 150°
2026-04-20 19:41 50.46126 -3.44275 9216 ft 241 kts 150°
2026-04-20 19:41 50.44650 -3.42982 9224 ft 249 kts 151°
2026-04-20 19:41 50.43074 -3.41675 9227 ft 256 kts 152°
2026-04-20 19:42 50.41499 -3.40387 9226 ft 261 kts 153°
2026-04-20 19:42 50.39871 -3.39066 9224 ft 264 kts 152°
2026-04-20 19:42 50.38223 -3.37725 9223 ft 267 kts 153°
2026-04-20 19:42 50.36564 -3.36390 9226 ft 269 kts 153°
2026-04-20 19:43 50.34895 -3.35042 9222 ft 270 kts 153°
2026-04-20 19:43 50.33223 -3.33693 9223 ft 271 kts 153°
2026-04-20 19:43 50.31546 -3.32342 9224 ft 271 kts 153°
2026-04-20 19:43 50.29885 -3.31001 9222 ft 272 kts 153°
2026-04-20 19:44 50.28206 -3.29646 9218 ft 271 kts 153°
2026-04-20 19:44 50.26514 -3.28288 9218 ft 271 kts 153°
2026-04-20 19:44 50.24831 -3.26934 9219 ft 272 kts 153°
2026-04-20 19:44 50.23153 -3.25583 9218 ft 269 kts 154°
2026-04-20 19:45 50.21377 -3.24709 9219 ft 269 kts 168°
2026-04-20 19:45 50.19554 -3.24188 9217 ft 270 kts 170°
2026-04-20 19:45 50.17700 -3.23671 9217 ft 270 kts 169°
2026-04-20 19:45 50.15854 -3.23076 9218 ft 270 kts 167°
2026-04-20 19:46 50.14015 -3.22405 9215 ft 270 kts 167°
2026-04-20 19:46 50.12202 -3.21736 9214 ft 270 kts 167°
2026-04-20 19:46 50.10369 -3.21077 9215 ft 270 kts 167°
2026-04-20 19:46 50.08527 -3.20417 9217 ft 270 kts 167°
2026-04-20 19:47 50.06715 -3.19765 9217 ft 270 kts 167°
2026-04-20 19:47 50.04874 -3.19100 9216 ft 270 kts 167°
2026-04-20 19:47 50.03040 -3.18441 9214 ft 270 kts 167°
2026-04-20 19:47 50.01204 -3.17775 9216 ft 270 kts 167°
2026-04-20 19:48 49.99994 -3.17311 9211 ft 269 kts 163°
2026-04-20 19:48 49.98354 -3.15952 9214 ft 266 kts 145°
2026-04-20 19:48 49.96355 -3.13699 9139 ft 269 kts 143°
2026-04-20 19:48 49.95340 -3.12549 9027 ft 265 kts 144°
2026-04-20 19:49 49.93829 -3.10924 8797 ft 263 kts 146°
2026-04-20 19:49 49.92316 -3.09380 8604 ft 262 kts 146°
2026-04-20 19:49 49.90799 -3.07835 8390 ft 260 kts 146°
2026-04-20 19:49 49.89285 -3.06291 8192 ft 259 kts 146°
2026-04-20 19:50 49.87775 -3.04759 7975 ft 256 kts 147°
2026-04-20 19:50 49.86150 -3.03784 7986 ft 245 kts 163°
2026-04-20 19:50 49.84556 -3.03086 8040 ft 239 kts 163°
2026-04-20 19:50 49.82931 -3.02406 7824 ft 245 kts 164°
2026-04-20 19:51 49.81259 -3.01735 7618 ft 252 kts 165°
2026-04-20 19:51 49.79517 -3.01047 7420 ft 263 kts 165°
2026-04-20 19:51 49.77702 -3.00341 7223 ft 273 kts 165°
2026-04-20 19:51 49.75841 -2.99631 7086 ft 277 kts 165°
2026-04-20 19:52 49.73976 -2.98934 6962 ft 271 kts 165°
2026-04-20 19:52 49.72182 -2.98278 6840 ft 265 kts 165°
2026-04-20 19:52 49.70397 -2.97630 6691 ft 261 kts 165°
2026-04-20 19:52 49.68635 -2.96990 6544 ft 258 kts 165°
2026-04-20 19:53 49.66888 -2.96370 6386 ft 257 kts 165°
2026-04-20 19:53 49.65146 -2.95769 6227 ft 255 kts 165°
2026-04-20 19:53 49.63430 -2.95200 6069 ft 255 kts 165°
2026-04-20 19:53 49.61686 -2.94641 5856 ft 256 kts 165°
2026-04-20 19:54 49.59923 -2.94114 5597 ft 257 kts 164°
2026-04-20 19:54 49.58166 -2.93610 5341 ft 256 kts 165°
2026-04-20 19:54 49.56434 -2.93121 5086 ft 256 kts 165°
2026-04-20 19:54 49.54683 -2.92638 4798 ft 254 kts 165°
2026-04-20 19:55 49.52950 -2.92174 4508 ft 251 kts 165°
2026-04-20 19:55 49.51225 -2.91726 4226 ft 250 kts 165°
2026-04-20 19:55 49.49513 -2.91295 3942 ft 248 kts 165°
2026-04-20 19:55 49.47811 -2.90872 3652 ft 246 kts 165°
2026-04-20 19:56 49.46124 -2.90452 3372 ft 244 kts 165°
2026-04-20 19:56 49.44510 -2.89881 3079 ft 230 kts 149°
2026-04-20 19:56 49.43414 -2.88290 2793 ft 215 kts 118°
2026-04-20 19:56 49.43032 -2.86158 2526 ft 204 kts 95°
2026-04-20 19:57 49.42905 -2.84012 2349 ft 200 kts 94°
2026-04-20 19:57 49.42852 -2.81908 2260 ft 192 kts 88°
2026-04-20 19:57 49.42932 -2.79928 2167 ft 186 kts 86°
2026-04-20 19:57 49.43022 -2.77953 2024 ft 183 kts 87°
2026-04-20 19:58 49.43064 -2.76040 1966 ft 175 kts 89°
2026-04-20 19:58 49.43102 -2.74213 1942 ft 167 kts 88°
2026-04-20 19:58 49.43153 -2.72449 1801 ft 163 kts 88°
2026-04-20 19:58 49.43201 -2.70722 1581 ft 161 kts 87°
2026-04-20 19:59 49.43250 -2.69043 1354 ft 157 kts 87°
2026-04-20 19:59 49.43296 -2.67415 1136 ft 147 kts 87°
2026-04-20 19:59 49.43339 -2.65922 954 ft 135 kts 87°
2026-04-20 19:59 49.43373 -2.64534 757 ft 121 kts 87°
2026-04-20 20:00 49.43403 -2.63321 616 ft 107 kts 86°
2026-04-20 20:00 49.43440 -2.62210 469 ft 103 kts 85°
2026-04-20 20:00 49.43467 -2.61135 356 ft 97 kts 83°
2026-04-20 20:00 49.43497 -2.60269 330 ft 49 kts 87°
2026-04-20 20:01 49.43505 -2.59945 340 ft 14 kts 85°
2026-04-20 20:01 49.43501 -2.59883 341 ft 8 kts 114°
2026-04-20 20:01 49.43440 -2.59863 341 ft 8 kts 177°
2026-04-20 20:01 49.43395 -2.59859 341 ft 8 kts 178°
2026-04-20 20:02 49.43379 -2.59858 341 ft 0 kts 177°
2026-04-20 20:02 49.43369 -2.59856 341 ft 4 kts 167°
2026-04-20 20:02 49.43350 -2.59826 341 ft 2 kts 109°
2026-04-20 20:03 49.43348 -2.59806 341 ft 8 kts 96°
2026-04-20 20:03 49.43359 -2.59718 339 ft 8 kts 78°
2026-04-20 20:03 49.43363 -2.59623 339 ft 11 kts 88°
2026-04-20 20:03 49.43361 -2.59579 339 ft 4 kts 117°
2026-04-20 20:04 49.43315 -2.59566 341 ft 8 kts 176°
2026-04-20 20:04 49.43287 -2.59564 341 ft 0 kts 175°
2026-04-20 20:04 49.43281 -2.59563 341 ft 1 kts 175°
2026-04-20 20:04 49.43279 -2.59563 337 ft 0 kts 175°